GW0138 Weather Reports


time (UTC)temp
C
wind
direction
speed
KPH
gust
KPH
rain 1hr
cm
rain 24hr
cm
rain mn
cm
humidity
%
barometer
mb
20260507150142 28 68 9.7 20.9 0.00 0.00 0.00 70 999.4
20260507145631 27 135 9.7 22.5 0.00 0.00 0.00 71 999.5
20260507144611 28 90 6.4 20.9 0.00 0.00 0.00 70 1000.2
20260507144101 28 113 8.0 20.9 0.00 0.00 0.00 71 1000.0
20260507143551 28 68 6.4 17.7 0.00 0.00 0.00 71 1000.3
20260507143042 27 45 9.7 14.5 0.00 0.00 0.00 71 1000.5
20260507142532 27 135 8.0 20.9 0.00 0.00 0.00 71 1000.2
20260507142021 27 90 4.8 20.9 0.00 0.00 0.00 72 1000.1
20260507141511 27 135 8.0 17.7 0.00 0.00 0.00 71 1000.3
20260507141000 27 113 4.8 20.9 0.00 0.00 0.00 73 1000.6
20260507140450 27 113 6.4 20.9 0.00 0.00 0.00 72 1000.8
20260507135940 27 113 11.3 20.9 0.00 0.00 0.00 72 1000.9
20260507135430 27 90 3.2 12.9 0.00 0.00 0.00 73 1001.0
20260507134920 27 68 6.4 12.9 0.00 0.00 0.00 73 1001.2
20260507134410 27 90 3.2 17.7 0.00 0.00 0.00 74 1001.2
20260507133900 27 113 3.2 17.7 0.00 0.00 0.00 73 1001.2
20260507132841 26 90 6.4 17.7 0.00 0.00 0.00 74 1001.1
20260507132330 26 135 6.4 17.7 0.00 0.00 0.00 74 1001.2
20260507131820 26 113 8.0 17.7 0.00 0.00 0.00 74 1001.1
20260507131310 26 113 8.0 14.5 0.00 0.00 0.00 73 1001.4
20260507130800 26 113 6.4 14.5 0.00 0.00 0.00 74 1001.2
20260507130249 26 68 4.8 17.7 0.00 0.00 0.00 74 1001.2
20260507125739 26 68 6.4 17.7 0.00 0.00 0.00 73 1001.2
20260507125229 26 113 6.4 24.1 0.00 0.00 0.00 73 1000.8
20260507124719 26 45 6.4 24.1 0.00 0.00 0.00 73 1000.7
20260507124208 26 90 9.7 20.9 0.00 0.00 0.00 73 1000.7
20260507123148 26 90 6.4 17.7 0.00 0.00 0.00 74 1000.8
20260507122638 26 90 6.4 17.7 0.00 0.00 0.00 74 1000.4
20260507122128 26 45 6.4 17.7 0.00 0.00 0.00 74 1000.4
20260507121618 26 135 3.2 17.7 0.00 0.00 0.00 74 1000.2
20260507121108 26 113 4.8 24.1 0.00 0.00 0.00 74 1000.2
20260507120558 26 135 14.5 24.1 0.00 0.00 0.00 74 1000.2
20260507120048 26 68 8.0 20.9 0.00 0.00 0.00 74 1000.1
20260507115537 26 113 6.4 17.7 0.00 0.00 0.00 74 1000.1
20260507115027 26 90 9.7 17.7 0.00 0.00 0.00 74 1000.3
20260507114517 26 113 9.7 17.7 0.00 0.00 0.00 74 1000.5
20260507114008 26 90 9.7 17.7 0.00 0.00 0.00 74 1000.0
20260507113456 26 113 6.4 24.1 0.00 0.00 0.00 75 1000.1
20260507112947 26 113 8.0 24.1 0.00 0.00 0.00 74 1000.2
20260507111928 26 135 8.0 14.5 0.00 0.00 0.00 74 1000.3
20260507111417 25 113 6.4 12.9 0.00 0.00 0.00 75 1000.3
20260507110906 26 113 4.8 14.5 0.00 0.00 0.00 75 1000.4
20260507105846 25 90 4.8 11.3 0.00 0.00 0.00 75 1000.2
20260507104826 26 113 3.2 14.5 0.00 0.00 0.00 75 1000.2
20260507104316 26 113 4.8 17.7 0.00 0.00 0.00 75 1000.2
20260507103806 26 180 11.3 17.7 0.00 0.00 0.00 74 1000.2
20260507103256 26 90 6.4 17.7 0.00 0.00 0.00 74 999.9
20260507102746 26 113 6.4 17.7 0.00 0.00 0.00 74 1000.0
20260507102236 26 68 6.4 17.7 0.00 0.00 0.00 73 999.8
20260507101726 26 113 6.4 17.7 0.00 0.00 0.00 74 999.9
20260507101215 26 113 9.7 17.7 0.00 0.00 0.00 73 999.8
20260507100705 26 113 6.4 14.5 0.00 0.00 0.00 73 999.9
20260507100155 26 23 8.0 14.5 0.00 0.00 0.00 74 1000.1
20260507095645 26 23 6.4 17.7 0.00 0.00 0.00 73 1000.1
20260507095135 26 113 4.8 17.7 0.00 0.00 0.00 73 1000.0
20260507094114 26 135 6.4 11.3 0.00 0.00 0.00 74 1000.1
20260507093605 26 90 4.8 12.9 0.00 0.00 0.00 73 1000.0
20260507093054 26 90 6.4 14.5 0.00 0.00 0.00 73 999.9
20260507092544 26 68 8.0 17.7 0.00 0.00 0.00 74 999.9
20260507092035 26 203 9.7 17.7 0.00 0.00 0.00 74 999.8
20260507091525 26 90 6.4 14.5 0.00 0.00 0.00 74 999.9
20260507091014 26 113 4.8 14.5 0.00 0.00 0.00 74 999.9
20260507085954 26 90 6.4 12.9 0.00 0.00 0.00 73 1000.3
20260507085443 26 68 4.8 11.3 0.00 0.00 0.00 74 1000.4
20260507084423 26 90 6.4 12.9 0.00 0.00 0.00 74 1000.4
20260507083913 26 113 6.4 12.9 0.00 0.00 0.00 74 1000.4
20260507083402 26 90 6.4 14.5 0.00 0.00 0.00 74 1000.5
20260507082853 26 113 6.4 14.5 0.00 0.00 0.00 74 1000.4
20260507081832 26 90 8.0 17.7 0.00 0.00 0.00 74 1000.4
20260507081323 26 113 6.4 17.7 0.00 0.00 0.00 74 1000.4
20260507080812 26 68 3.2 12.9 0.00 0.00 0.00 74 1000.5
20260507075753 26 113 6.4 17.7 0.00 0.00 0.00 75 1000.3
20260507075243 26 135 8.0 17.7 0.00 0.00 0.00 74 1000.4
20260507074732 26 113 3.2 11.3 0.00 0.00 0.00 75 1000.5
20260507074222 26 113 6.4 11.3 0.00 0.00 0.00 75 1000.6
20260507072651 25 68 3.2 14.5 0.00 0.00 0.00 76 1000.5
20260507072141 25 135 6.4 14.5 0.00 0.00 0.00 76 1000.5
20260507071631 25 113 4.8 14.5 0.00 0.00 0.00 76 1000.5
20260507071121 25 135 4.8 14.5 0.00 0.00 0.00 76 1000.7
20260507070612 25 113 4.8 12.9 0.00 0.00 0.00 76 1000.5
20260507065551 25 135 4.8 12.9 0.00 0.00 0.00 77 1001.0
20260507065041 25 113 3.2 14.5 0.00 0.00 0.00 76 1000.9
20260507064530 25 135 6.4 14.5 0.00 0.00 0.00 76 1001.2
20260507064020 25 113 6.4 12.9 0.00 0.00 0.00 76 1000.9
20260507063510 25 90 4.8 12.9 0.00 0.00 0.00 76 1001.0
20260507061430 25 90 1.6 12.9 0.00 0.00 0.00 76 1001.1
20260507060920 25 158 6.4 11.3 0.00 0.00 0.00 76 1001.4
20260507060411 26 113 8.0 0.0 0.00 0.00 0.00 76 1001.4
20260507060155 26 113 8.0 0.0 0.00 0.00 0.00 76 1001.4
20260507055821 26 90 6.4 14.5 0.00 0.00 0.00 76 1001.5
20260507055310 25 68 6.4 14.5 0.00 0.00 0.00 76 1001.3
20260507054801 25 90 3.2 11.3 0.00 0.00 0.00 77 1001.5
20260507054250 25 90 6.4 12.9 0.00 0.00 0.00 77 1001.5
20260507053230 25 68 6.4 12.9 0.00 0.00 0.00 77 1001.7
20260507052719 25 90 6.4 12.9 0.00 0.00 0.00 77 1001.5
20260507051700 26 113 3.2 11.3 0.00 0.00 0.00 77 1001.8
20260507051150 26 113 3.2 11.3 0.00 0.00 0.00 77 1002.1
20260507050641 26 68 3.2 12.9 0.00 0.00 0.00 77 1001.8
20260507050130 26 135 4.8 12.9 0.00 0.00 0.00 76 1002.0
20260507045619 26 113 3.2 12.9 0.00 0.00 0.00 77 1002.1
20260507045110 26 135 4.8 11.3 0.00 0.00 0.00 77 1002.1
20260507044051 26 113 6.4 12.9 0.00 0.00 0.00 76 1002.2
20260507043539 26 113 3.2 12.9 0.00 0.00 0.00 76 1002.2
20260507043029 26 90 3.2 12.9 0.00 0.00 0.00 76 1002.3
20260507042518 26 113 3.2 12.9 0.00 0.00 0.00 76 1002.0
20260507042009 26 135 3.2 11.3 0.00 0.00 0.00 76 1002.0
20260507041459 26 113 6.4 14.5 0.00 0.00 0.00 75 1002.1
20260507040948 26 113 6.4 14.5 0.00 0.00 0.00 76 1002.1
20260507040439 26 113 3.2 12.9 0.00 0.00 0.00 76 1002.4
20260507035928 26 135 6.4 14.5 0.00 0.00 0.00 75 1002.5
20260507035418 26 113 6.4 14.5 0.00 0.00 0.00 75 1002.4
20260507034909 26 135 3.2 9.7 0.00 0.00 0.00 76 1002.3
20260507034358 26 135 3.2 11.3 0.00 0.00 0.00 76 1002.5
20260507033847 26 90 3.2 11.3 0.00 0.00 0.00 76 1002.4
20260507033341 26 113 6.4 11.3 0.00 0.00 0.00 76 1002.3
20260507032318 26 90 4.8 9.7 0.00 0.00 0.00 75 1002.4
20260507031807 26 90 4.8 9.7 0.00 0.00 0.00 75 1002.4
20260507031257 26 68 4.8 12.9 0.00 0.00 0.00 75 1002.5
20260507030747 26 90 4.8 12.9 0.00 0.00 0.00 75 1002.6
20260507030238 27 158 3.2 11.3 0.00 0.00 0.00 74 1002.7
20260507025726 27 90 3.2 11.3 0.00 0.00 0.00 74 1002.6
20260507024706 27 158 3.2 11.3 0.00 0.00 0.00 74 1002.9
20260507024157 27 113 3.2 12.9 0.00 0.00 0.00 74 1002.8
20260507023137 27 113 3.2 11.3 0.00 0.00 0.00 73 1003.0
20260507022116 27 90 4.8 12.9 0.00 0.00 0.00 72 1003.0
20260507021606 27 113 3.2 11.3 0.00 0.00 0.00 73 1002.8
20260507021055 27 90 6.4 11.3 0.00 0.00 0.00 72 1002.7
20260507020546 27 45 3.2 9.7 0.00 0.00 0.00 72 1003.2
20260507020036 27 113 6.4 9.7 0.00 0.00 0.00 73 1002.9
20260507015015 27 90 1.6 6.4 0.00 0.00 0.00 74 1003.1
20260507013445 27 68 3.2 11.3 0.00 0.00 0.00 73 1003.2
20260507011915 27 113 3.2 9.7 0.00 0.00 0.00 75 1003.2
20260507010855 26 90 3.2 6.4 0.00 0.00 0.00 77 1003.0
20260507010344 26 90 3.2 6.4 0.00 0.00 0.00 77 1003.1
20260507005835 26 113 3.2 6.4 0.00 0.00 0.00 77 1003.1
20260507005324 26 113 1.6 6.4 0.00 0.00 0.00 77 1003.4
20260507004814 27 113 3.2 6.4 0.00 0.00 0.00 76 1003.3
20260507004304 27 135 3.2 6.4 0.00 0.00 0.00 76 1003.4
20260507003754 27 113 1.6 6.4 0.00 0.00 0.00 75 1003.1
20260507003243 27 90 3.2 9.7 0.00 0.00 0.00 75 1002.9
20260507002734 27 90 4.8 9.7 0.00 0.00 0.00 75 1003.1
20260507002223 27 113 1.6 11.3 0.00 0.00 0.00 75 1003.1
20260507001713 27 90 4.8 11.3 0.00 0.00 0.00 75 1003.0
20260507001203 27 90 3.2 11.3 0.00 0.00 0.00 75 1003.1
20260507000653 27 113 6.4 9.7 0.00 0.00 0.00 75 1003.0
20260506235633 27 158 3.2 9.7 0.00 0.00 0.00 75 1003.3
20260506235125 27 90 4.8 6.4 0.00 0.00 0.00 75 1003.0
20260506234613 27 68 3.2 6.4 0.00 0.00 0.00 75 1003.3
20260506234103 27 90 3.2 9.7 0.00 0.00 0.00 75 1003.3
20260506233553 27 68 4.8 9.7 0.00 0.00 0.00 74 1003.4
20260506233042 27 113 4.8 11.3 0.00 0.00 0.00 74 1003.2
20260506232533 27 90 6.4 11.3 0.00 0.00 0.00 74 1003.4
20260506232022 27 90 3.2 9.7 0.00 0.00 0.00 74 1003.2
20260506231515 27 158 3.2 9.7 0.00 0.00 0.00 74 1003.1
20260506230452 27 90 3.2 14.5 0.00 0.00 0.00 74 1003.3
20260506225942 27 68 6.4 14.5 0.00 0.00 0.00 74 1003.0
20260506225431 27 90 3.2 11.3 0.00 0.00 0.00 75 1003.2
20260506224921 27 113 3.2 6.4 0.00 0.00 0.00 75 1003.2
20260506224412 27 113 3.2 11.3 0.00 0.00 0.00 75 1003.4
20260506223901 27 135 3.2 11.3 0.00 0.00 0.00 74 1003.3
20260506223351 27 135 4.8 9.7 0.00 0.00 0.00 74 1003.1
20260506222840 27 68 3.2 6.4 0.00 0.00 0.00 74 1003.4
20260506222330 27 113 3.2 6.4 0.00 0.00 0.00 75 1003.5
20260506221821 27 113 4.8 6.4 0.00 0.00 0.00 74 1003.5
20260506221311 27 158 3.2 6.4 0.00 0.00 0.00 74 1003.6
20260506220800 27 90 3.2 6.4 0.00 0.00 0.00 73 1003.4
20260506220251 27 113 1.6 9.7 0.00 0.00 0.00 73 1003.3
20260506215740 28 135 3.2 9.7 0.00 0.00 0.00 72 1003.2
20260506215230 28 158 3.2 9.7 0.00 0.00 0.00 72 1003.3
20260506214720 28 158 3.2 9.7 0.00 0.00 0.00 71 1003.4
20260506214210 28 113 3.2 6.4 0.00 0.00 0.00 71 1003.5
20260506213700 28 135 3.2 6.4 0.00 0.00 0.00 71 1003.6
20260506213150 28 113 1.6 6.4 0.00 0.00 0.00 72 1003.6
20260506212640 28 135 1.6 6.4 0.00 0.00 0.00 72 1003.2
20260506212129 28 135 3.2 11.3 0.00 0.00 0.00 71 1003.3
20260506211621 28 135 0.0 11.3 0.00 0.00 0.00 71 1003.2
20260506210559 28 135 3.2 11.3 0.00 0.00 0.00 70 1003.5
20260506210049 28 135 3.2 9.7 0.00 0.00 0.00 70 1003.5
20260506205538 28 113 3.2 9.7 0.00 0.00 0.00 70 1003.7
20260506204519 29 135 3.2 9.7 0.00 0.00 0.00 70 1003.6
20260506204009 29 135 3.2 9.7 0.00 0.00 0.00 70 1003.8
20260506203458 29 113 3.2 6.4 0.00 0.00 0.00 69 1003.8
20260506202949 29 113 3.2 9.7 0.00 0.00 0.00 69 1003.9
20260506202438 29 113 3.2 12.9 0.00 0.00 0.00 68 1003.9
20260506201928 30 90 6.4 12.9 0.00 0.00 0.00 67 1003.9
20260506200908 30 90 3.2 11.3 0.00 0.00 0.00 66 1003.7
20260506200358 30 158 4.8 9.7 0.00 0.00 0.00 66 1003.8
20260506195848 30 90 4.8 9.7 0.00 0.00 0.00 65 1003.8
20260506195337 30 90 4.8 9.7 0.00 0.00 0.00 64 1003.7
20260506194827 30 113 3.2 9.7 0.00 0.00 0.00 66 1003.9
20260506194317 30 68 3.2 11.3 0.00 0.00 0.00 64 1003.9
20260506193807 30 113 6.4 14.5 0.00 0.00 0.00 64 1004.1
20260506193257 30 68 6.4 14.5 0.00 0.00 0.00 65 1004.0
20260506192747 30 90 3.2 11.3 0.00 0.00 0.00 64 1004.4
20260506191726 30 90 4.8 12.9 0.00 0.00 0.00 63 1004.3
20260506191217 31 135 6.4 12.9 0.00 0.00 0.00 63 1004.3
20260506190707 31 68 6.4 12.9 0.00 0.00 0.00 63 1004.3
20260506190156 31 113 8.0 14.5 0.00 0.00 0.00 61 1004.6
20260506185646 31 90 6.4 14.5 0.00 0.00 0.00 62 1004.3
20260506185136 31 90 4.8 17.7 0.00 0.00 0.00 63 1004.7
20260506184626 31 113 11.3 17.7 0.00 0.00 0.00 61 1004.6
20260506184116 31 90 4.8 17.7 0.00 0.00 0.00 62 1004.5
20260506183605 31 113 4.8 14.5 0.00 0.00 0.00 60 1004.7
20260506183056 32 90 6.4 17.7 0.00 0.00 0.00 60 1004.6
20260506182546 32 68 6.4 17.7 0.00 0.00 0.00 58 1004.8
20260506182036 32 68 6.4 17.7 0.00 0.00 0.00 60 1004.9
20260506181526 32 68 6.4 17.7 0.00 0.00 0.00 58 1004.9
20260506181015 31 45 6.4 17.7 0.00 0.00 0.00 60 1005.3
20260506180505 31 90 6.4 20.9 0.00 0.00 0.00 59 1005.0
20260506175445 32 45 9.7 17.7 0.00 0.00 0.00 57 1005.2
20260506174935 32 113 3.2 17.7 0.00 0.00 0.00 56 1005.0
20260506174424 32 68 6.4 17.7 0.00 0.00 0.00 58 1005.3
20260506173406 32 68 3.2 20.9 0.00 0.00 0.00 58 1005.6
20260506172854 32 158 6.4 20.9 0.00 0.00 0.00 57 1005.7
20260506172344 32 68 9.7 17.7 0.00 0.00 0.00 58 1005.9
20260506171834 31 90 6.4 17.7 0.00 0.00 0.00 60 1005.7
20260506171324 31 45 6.4 17.7 0.00 0.00 0.00 61 1005.9
20260506170813 31 113 6.4 17.7 0.00 0.00 0.00 61 1005.9
20260506165754 31 90 6.4 20.9 0.00 0.00 0.00 64 1006.3
20260506165243 31 90 3.2 20.9 0.00 0.00 0.00 64 1006.4
20260506164733 31 113 3.2 22.5 0.00 0.00 0.00 64 1006.5
20260506164223 31 90 9.7 22.5 0.00 0.00 0.00 62 1006.7
20260506163713 31 135 4.8 14.5 0.00 0.00 0.00 63 1006.6
20260506163203 31 113 4.8 14.5 0.00 0.00 0.00 64 1007.0
20260506162653 30 113 4.8 12.9 0.00 0.00 0.00 65 1007.0
20260506162143 30 113 6.4 14.5 0.00 0.00 0.00 65 1007.0
20260506161632 30 90 6.4 17.7 0.00 0.00 0.00 65 1006.8
20260506161123 30 113 6.4 17.7 0.00 0.00 0.00 64 1007.3
20260506160612 30 113 6.4 17.7 0.00 0.00 0.00 64 1007.3
20260506155042 30 158 6.4 17.7 0.00 0.00 0.00 66 1007.8
20260506154531 30 158 6.4 14.5 0.00 0.00 0.00 66 1007.8
20260506154021 30 113 3.2 14.5 0.00 0.00 0.00 67 1007.9
20260506153512 30 135 8.0 14.5 0.00 0.00 0.00 66 1008.1
20260506153002 30 90 4.8 14.5 0.00 0.00 0.00 66 1008.1
20260506152451 30 68 6.4 14.5 0.00 0.00 0.00 65 1008.1
20260506151941 30 90 4.8 17.7 0.00 0.00 0.00 66 1007.9
20260506151431 30 113 12.9 17.7 0.00 0.00 0.00 66 1008.3
20260506150923 30 113 6.4 14.5 0.00 0.00 0.00 66 1008.6